Location: Ammerl�gen
(47.2167°N, 9.6000°E)
Time: 04:11:31
(UTC+00:00)

Okean 3 Rocket - Pass Details

Date: 21 April 2021
Orbit: 615 x 645 km, 82.5° (Epoch: 16 May)

Event Time Altitude Azimuth Distance (km) Brightness Sun altitude
Rises 20:16:41 0° 353° (N) 2,964 7.8 -17.9°
Reaches altitude 10° 20:18:59 10° 358° (N) 2,047 6.8 -18.2°
Maximum altitude 20:23:28 59° 78° (ENE) 744 3.7 -18.8°
Enters shadow 20:24:42 42° 133° (SE) 909 3.9 -18.9°
